period_start,C,m1,H,J0,J1,J2,J3,J4,J5,JA,JB,JC,JD,JJ,JK,JN,#
2015-01-24 00:00:56,0.21,1.15,0.00,23.60,27.87,30.52,4.78,27.55,1010.51,2028.88,2953.00,2981.51,3236.01,350.33,345.25,3.84,0000 0000 0000 0000 000000
2015-01-24 00:05:57,0.21,1.16,0.00,23.62,27.87,30.53,4.73,27.55,1010.64,2028.79,2950.54,2979.64,3234.00,349.63,344.56,3.87,0000 0000 0000 0000 000000
2015-01-24 00:10:59,0.23,1.16,0.00,23.61,27.87,30.53,4.77,27.55,1010.74,2028.82,2948.19,2977.84,3232.03,350.05,345.12,3.90,0000 0000 0000 0000 000000
2015-01-24 00:16:00,0.19,1.17,0.00,23.60,27.88,30.54,4.83,27.69,1010.76,2028.70,2945.75,2975.93,3229.93,350.72,345.58,3.93,0000 0000 0000 0000 000000
2015-01-24 00:21:01,0.22,1.18,0.00,23.59,27.88,30.55,4.68,27.64,1010.69,2028.66,2943.46,2974.08,3227.95,349.53,344.62,3.96,0000 0000 0000 0000 000000
2015-01-24 00:26:02,0.21,1.18,0.00,23.56,27.89,30.52,4.75,27.72,1010.61,2028.62,2941.05,2972.19,3225.94,350.10,345.07,3.99,0000 0000 0000 0000 000000
2015-01-24 00:31:04,0.21,1.19,0.00,23.60,27.90,30.53,4.73,27.76,1010.50,2028.58,2938.61,2970.32,3223.98,349.79,344.57,4.02,0000 0000 0000 0000 000000
2015-01-24 00:36:05,0.22,1.20,0.00,23.56,27.90,30.55,4.80,27.82,1010.29,2028.42,2936.12,2968.42,3221.84,350.42,345.36,4.05,0000 0000 0000 0000 000000
2015-01-24 00:41:06,0.22,1.20,0.00,23.55,27.90,30.53,4.77,27.68,1010.32,2028.42,2933.65,2966.56,3219.81,350.15,345.02,4.08,0000 0000 0000 0000 000000
2015-01-24 00:46:07,0.22,1.21,0.00,23.57,27.90,30.53,4.73,27.61,1010.34,2028.41,2931.23,2964.65,3217.73,349.49,344.38,4.11,0000 0000 0000 0000 000000
2015-01-24 00:51:09,0.20,1.21,0.00,23.57,27.90,30.56,4.81,27.67,1010.32,2028.15,2928.67,2962.67,3215.59,350.11,344.86,4.14,0000 0000 0000 0000 000000
2015-01-24 00:56:10,0.24,1.22,0.00,23.59,27.90,30.57,4.79,27.68,1010.42,2028.08,2926.06,2960.65,3213.42,350.20,345.05,4.17,0000 0000 0000 0000 000000
2015-01-24 01:01:11,0.24,1.23,0.00,23.60,27.90,30.57,4.76,27.75,1010.31,2028.16,2923.57,2958.75,3211.37,350.18,344.87,4.19,0000 0000 0000 0000 000000
2015-01-24 01:06:12,0.23,1.24,0.00,23.54,27.90,30.59,4.74,27.65,1010.31,2028.06,2920.99,2956.74,3209.15,350.03,344.84,4.22,0000 0000 0000 0000 000000
2015-01-24 01:11:14,0.24,1.24,0.00,23.56,27.92,30.60,4.81,27.75,1010.28,2028.06,2918.35,2954.75,3206.99,350.48,345.33,4.25,0000 0000 0000 0000 000000
2015-01-24 01:16:15,0.24,1.25,0.00,23.59,27.92,30.59,4.70,27.69,1010.46,2028.06,2915.76,2952.72,3204.81,349.78,344.92,4.28,0000 0000 0000 0000 000000
2015-01-24 01:21:16,0.25,1.26,0.00,23.57,27.92,30.58,4.78,27.74,1010.73,2028.03,2913.04,2950.65,3202.51,349.93,344.93,4.31,0000 0000 0000 0000 000000
2015-01-24 01:26:18,0.25,1.26,0.00,23.59,27.92,30.60,4.77,27.72,1010.76,2028.01,2910.34,2948.58,3200.32,350.16,345.15,4.34,0000 0000 0000 0000 000000
2015-01-24 01:31:19,0.25,1.27,0.00,23.64,27.92,30.59,4.66,27.49,1010.76,2028.00,2907.62,2946.51,3198.11,349.47,344.39,4.37,0000 0000 0000 0000 000000
2015-01-24 01:36:20,0.25,1.28,0.00,23.55,27.92,30.60,4.87,27.80,1010.76,2028.01,2905.01,2944.56,3195.93,350.55,345.35,4.40,0000 0000 0000 0000 000000
2015-01-24 01:41:21,0.25,1.29,0.00,23.52,27.92,30.60,4.77,27.80,1010.77,2028.00,2902.23,2942.49,3193.66,350.06,345.12,4.43,0000 0000 0000 0000 000000
2015-01-24 01:46:23,0.24,1.29,0.00,23.55,27.93,30.64,4.68,27.63,1010.77,2028.00,2899.62,2940.50,3191.45,349.31,344.36,4.46,0000 0000 0000 0000 000000
2015-01-24 01:51:24,0.25,1.30,0.00,23.59,27.95,30.61,4.78,27.83,1010.76,2028.00,2896.99,2938.48,3189.22,350.05,345.08,4.49,0000 0000 0000 0000 000000
2015-01-24 01:56:25,0.26,1.31,0.00,23.58,27.95,30.63,4.71,27.88,1010.76,2028.00,2894.29,2936.39,3186.96,350.26,345.41,4.52,0000 0000 0000 0000 000000
2015-01-24 02:01:26,0.24,1.32,0.00,23.59,27.95,30.64,4.78,27.83,1010.76,2028.00,2891.59,2934.34,3184.79,349.62,344.57,4.55,0000 0000 0000 0000 000000
2015-01-24 02:06:27,0.25,1.32,0.00,23.59,27.95,30.64,4.81,27.65,1010.76,2028.00,2889.00,2932.33,3182.56,349.38,344.35,4.58,0000 0000 0000 0000 000000
2015-01-24 02:11:28,0.25,1.33,0.00,23.58,27.95,30.66,4.77,27.77,1010.76,2028.00,2886.31,2930.32,3180.33,350.31,345.33,4.60,0000 0000 0000 0000 000000
2015-01-24 02:16:29,0.26,1.34,0.00,23.56,27.95,30.65,4.73,27.73,1010.76,2028.00,2883.63,2928.24,3178.11,349.81,344.94,4.63,0000 0000 0000 0000 000000
2015-01-24 02:21:31,0.27,1.35,0.00,23.54,27.95,30.67,4.78,27.85,1010.76,2028.00,2880.85,2926.14,3175.80,349.76,344.96,4.66,0000 0000 0000 0000 000000
2015-01-24 02:26:32,0.25,1.35,0.00,23.53,27.97,30.66,4.79,27.90,1010.76,2028.00,2878.25,2924.04,3173.50,350.04,345.11,4.69,0000 0000 0000 0000 000000
2015-01-24 02:31:33,0.28,1.36,0.00,23.52,27.97,30.63,4.71,27.65,1010.76,2028.00,2875.52,2921.89,3171.17,349.81,344.73,4.72,0000 0000 0000 0000 000000
2015-01-24 02:36:35,0.26,1.37,0.00,23.51,27.97,30.67,4.76,27.95,1010.76,2027.98,2872.69,2919.73,3168.85,349.67,344.87,4.75,0000 0000 0000 0000 000000
2015-01-24 02:41:36,0.26,1.38,0.00,23.50,27.97,30.67,4.79,27.93,1010.76,2027.98,2869.82,2917.59,3166.48,349.98,344.98,4.78,0000 0000 0000 0000 000000
2015-01-24 02:46:37,0.27,1.39,0.00,23.52,27.97,30.67,4.75,27.87,1010.76,2027.98,2867.11,2915.45,3164.18,350.08,345.06,4.81,0000 0000 0000 0000 000000
2015-01-24 02:51:38,0.26,1.39,0.00,23.52,27.97,30.66,4.72,27.98,1010.76,2027.98,2864.34,2913.35,3161.85,350.42,345.27,4.84,0000 0000 0000 0000 000000
2015-01-24 02:56:39,0.26,1.40,0.00,23.52,27.97,30.68,4.79,27.67,1010.77,2027.98,2861.58,2911.29,3159.58,350.20,345.28,4.87,0000 0000 0000 0000 000000
2015-01-24 03:01:40,0.27,1.41,0.00,23.50,27.98,30.68,4.79,27.87,1010.85,2027.96,2858.82,2909.11,3157.28,349.95,344.97,4.90,0000 0000 0000 0000 000000
2015-01-24 03:06:42,0.27,1.42,0.00,23.50,27.99,30.67,4.80,27.72,1010.89,2027.95,2856.04,2907.02,3154.99,350.08,345.16,4.93,0000 0000 0000 0000 000000
2015-01-24 03:11:43,0.25,1.43,0.00,23.51,28.00,30.68,4.68,27.77,1010.86,2027.90,2853.19,2904.87,3152.65,349.51,344.58,4.96,0000 0000 0000 0000 000000
2015-01-24 03:16:44,0.27,1.43,0.00,23.50,28.00,30.71,4.84,27.80,1011.00,2027.89,2850.39,2902.75,3150.37,350.82,345.57,4.99,0000 0000 0000 0000 000000
2015-01-24 03:21:46,0.27,1.44,0.00,23.49,28.00,30.67,4.74,27.53,1011.21,2027.93,2847.76,2900.69,3148.13,349.98,345.28,5.01,0000 0000 0000 0000 000000
2015-01-24 03:26:47,0.26,1.45,0.00,23.51,28.00,30.69,4.83,27.59,1011.23,2027.94,2845.04,2898.65,3145.91,350.35,345.39,5.04,0000 0000 0000 0000 000000
2015-01-24 03:31:48,0.25,1.46,0.00,23.52,28.00,30.69,4.79,27.62,1011.24,2027.89,2842.33,2896.60,3143.58,350.06,345.30,5.07,0000 0000 0000 0000 000000
2015-01-24 03:36:49,0.23,1.46,0.00,23.49,28.00,30.70,4.79,27.60,1011.24,2027.79,2839.69,2894.50,3141.31,350.19,345.55,5.10,0000 0000 0000 0000 000000
2015-01-24 03:41:51,0.25,1.47,0.00,23.47,28.01,30.70,4.77,27.48,1011.25,2027.59,2836.83,2892.37,3139.01,350.02,345.40,5.13,0000 0000 0000 0000 000000
2015-01-24 03:46:52,0.26,1.48,0.00,23.46,28.02,30.73,4.72,27.48,1011.26,2027.61,2834.16,2890.33,3136.74,349.29,344.62,5.16,0000 0000 0000 0000 000000
2015-01-24 03:51:53,0.22,1.49,0.00,23.49,28.02,30.70,4.72,27.60,1011.27,2027.44,2831.46,2888.25,3134.60,349.98,345.38,5.19,0000 0000 0000 0000 000000
2015-01-24 03:56:55,0.27,1.49,0.00,23.51,28.02,30.73,4.70,27.63,1011.25,2027.50,2828.74,2886.23,3132.45,349.88,345.07,5.22,0000 0000 0000 0000 000000
2015-01-24 04:01:56,0.28,1.50,0.00,23.48,28.02,30.73,4.77,27.71,1011.25,2027.58,2826.05,2884.19,3130.24,349.94,345.03,5.25,0000 0000 0000 0000 000000
2015-01-24 04:06:57,0.25,1.51,0.00,23.50,28.03,30.73,4.74,27.57,1011.26,2027.52,2823.26,2882.06,3127.86,350.30,345.52,5.28,0000 0000 0000 0000 000000
2015-01-24 04:11:59,0.23,1.52,0.00,23.50,28.04,30.73,4.70,27.66,1011.26,2027.37,2820.52,2879.94,3125.57,349.41,344.84,5.31,0000 0000 0000 0000 000000
2015-01-24 04:17:00,0.26,1.52,0.00,23.52,28.05,30.75,4.74,27.57,1011.31,2027.31,2817.74,2878.02,3123.34,349.92,345.18,5.34,0000 0000 0000 0000 000000
2015-01-24 04:22:01,0.26,1.53,0.00,23.50,28.05,30.75,4.77,27.50,1011.27,2027.29,2815.03,2875.94,3121.01,349.67,344.95,5.37,0000 0000 0000 0000 000000
2015-01-24 04:27:02,0.25,1.54,0.00,23.49,28.05,30.77,4.79,27.73,1011.26,2027.13,2812.23,2873.76,3118.65,350.25,345.53,5.40,0000 0000 0000 0000 000000
2015-01-24 04:32:04,0.26,1.55,0.00,23.50,28.05,30.75,4.76,27.68,1011.25,2027.04,2809.40,2871.62,3116.30,349.75,345.07,5.42,0000 0000 0000 0000 000000
2015-01-24 04:37:05,0.27,1.56,0.00,23.51,28.05,30.76,4.73,27.68,1011.26,2027.02,2806.66,2869.47,3113.98,349.89,345.11,5.45,0000 0000 0000 0000 000000
2015-01-24 04:42:06,0.26,1.56,0.00,23.54,28.05,30.76,4.74,27.74,1011.26,2027.01,2803.82,2867.39,3111.64,350.56,345.66,5.48,0000 0000 0000 0000 000000
2015-01-24 04:47:08,0.27,1.57,0.00,23.49,28.07,30.76,4.76,27.62,1011.26,2027.01,2801.09,2865.29,3109.36,349.74,344.91,5.51,0000 0000 0000 0000 000000
2015-01-24 04:52:09,0.26,1.58,0.00,23.48,28.07,30.77,4.77,27.68,1011.33,2027.01,2798.43,2863.30,3107.16,350.20,345.51,5.54,0000 0000 0000 0000 000000
2015-01-24 04:57:11,0.27,1.59,0.00,23.48,28.07,30.78,4.80,27.88,1011.30,2027.02,2795.70,2861.20,3104.88,350.24,345.40,5.57,0000 0000 0000 0000 000000
2015-01-24 05:02:12,0.29,1.60,0.00,23.50,28.07,30.76,4.72,27.62,1011.48,2027.00,2792.86,2859.03,3102.46,349.17,344.57,5.60,0000 0000 0000 0000 000000
2015-01-24 05:07:13,0.27,1.60,0.00,23.51,28.07,30.78,4.76,27.63,1011.72,2027.00,2790.13,2856.93,3100.22,349.81,345.39,5.63,0000 0000 0000 0000 000000
2015-01-24 05:12:14,0.27,1.61,0.00,23.51,28.07,30.82,4.74,27.60,1011.68,2027.00,2787.38,2854.88,3097.96,349.49,344.99,5.66,0000 0000 0000 0000 000000
2015-01-24 05:17:16,0.27,1.62,0.00,23.49,28.07,30.80,4.73,27.68,1011.51,2027.00,2784.67,2852.77,3095.69,350.12,345.41,5.69,0000 0000 0000 0000 000000
2015-01-24 05:22:17,0.28,1.63,0.00,23.51,28.07,30.81,4.77,27.54,1011.68,2027.00,2781.81,2850.68,3093.34,350.10,345.51,5.72,0000 0000 0000 0000 000000
2015-01-24 05:27:18,0.27,1.64,0.00,23.50,28.08,30.78,4.73,27.57,1011.62,2027.00,2779.06,2848.62,3091.11,349.70,345.10,5.75,0000 0000 0000 0000 000000
2015-01-24 05:32:20,0.28,1.64,0.00,23.49,28.09,30.79,4.70,27.66,1011.61,2027.00,2776.25,2846.45,3088.77,349.50,344.94,5.78,0000 0000 0000 0000 000000
2015-01-24 05:37:21,0.28,1.65,0.00,23.50,28.10,30.81,4.80,27.56,1011.73,2027.00,2773.46,2844.32,3086.46,350.37,345.81,5.81,0000 0000 0000 0000 000000
2015-01-24 05:42:23,0.27,1.66,0.00,23.51,28.10,30.83,4.74,27.52,1011.73,2027.00,2770.61,2842.19,3084.15,350.01,345.47,5.83,0000 0000 0000 0000 000000
2015-01-24 05:47:24,0.28,1.67,0.00,23.52,28.10,30.83,4.73,27.66,1011.73,2027.00,2767.90,2840.12,3081.84,349.71,345.04,5.86,0000 0000 0000 0000 000000
2015-01-24 05:52:25,0.28,1.68,0.00,23.48,28.10,30.82,4.83,27.65,1011.73,2026.99,2765.13,2838.00,3079.54,350.07,345.35,5.89,0000 0000 0000 0000 000000
2015-01-24 05:57:26,0.28,1.69,0.00,23.50,28.10,30.81,4.81,27.60,1011.73,2026.99,2762.34,2835.86,3077.24,349.99,345.38,5.92,0000 0000 0000 0000 000000
2015-01-24 06:02:27,0.27,1.69,0.00,23.49,28.10,30.82,4.74,27.49,1011.76,2026.99,2759.54,2833.76,3074.94,349.09,344.65,5.95,0000 0000 0000 0000 000000
2015-01-24 06:07:29,0.27,1.70,0.00,23.48,28.10,30.80,4.76,27.55,1011.83,2026.99,2756.79,2831.69,3072.63,349.73,345.20,5.98,0000 0000 0000 0000 000000
2015-01-24 06:12:30,0.27,1.71,0.00,23.50,28.10,30.80,4.87,27.92,1011.83,2026.99,2754.09,2829.63,3070.51,350.42,345.83,6.01,0000 0000 0000 0000 000000
2015-01-24 06:17:31,0.27,1.72,0.00,23.50,28.10,30.81,4.77,27.55,1012.08,2026.99,2751.46,2827.57,3068.26,349.57,345.21,6.04,0000 0000 0000 0000 000000
2015-01-24 06:22:33,0.27,1.73,0.00,23.50,28.10,30.81,4.67,27.55,1012.15,2026.99,2748.84,2825.51,3065.99,349.59,345.13,6.07,0000 0000 0000 0000 000000
2015-01-24 06:27:34,0.27,1.73,0.00,23.49,28.10,30.81,4.76,27.73,1012.22,2026.99,2746.20,2823.51,3063.85,349.68,345.27,6.10,0000 0000 0000 0000 000000
2015-01-24 06:32:35,0.27,1.74,0.00,23.48,28.10,30.81,4.82,27.84,1012.20,2026.99,2743.47,2821.44,3061.55,349.82,345.45,6.13,0000 0000 0000 0000 000000
2015-01-24 06:37:36,0.28,1.75,0.00,23.49,28.10,30.83,4.80,27.58,1012.03,2026.98,2740.75,2819.35,3059.28,350.05,345.61,6.16,0000 0000 0000 0000 000000
2015-01-24 06:42:37,0.27,1.76,0.00,23.48,28.10,30.82,4.81,27.83,1011.98,2026.98,2738.09,2817.35,3057.03,350.10,345.62,6.19,0000 0000 0000 0000 000000
2015-01-24 06:47:39,0.26,1.77,0.00,23.47,28.10,30.82,4.72,27.73,1011.80,2026.98,2735.47,2815.40,3054.84,350.45,345.92,6.22,0000 0000 0000 0000 000000
2015-01-24 06:52:40,0.27,1.77,0.00,23.47,28.10,30.83,4.73,27.81,1011.73,2026.97,2732.67,2813.34,3052.55,350.01,345.32,6.24,0000 0000 0000 0000 000000
2015-01-24 06:57:41,0.30,1.78,0.00,23.47,28.10,30.82,4.70,27.66,1011.82,2026.96,2729.87,2811.24,3050.24,349.68,345.17,6.27,0000 0000 0000 0000 000000
2015-01-24 07:02:43,0.28,1.79,0.00,23.51,28.10,30.83,4.73,27.61,1011.93,2026.98,2727.08,2809.15,3048.03,350.05,345.54,6.30,0000 0000 0000 0000 000000
2015-01-24 07:07:44,0.28,1.80,0.00,23.50,28.10,30.82,4.86,27.88,1011.82,2026.96,2724.33,2807.07,3045.76,350.63,345.96,6.33,0000 0000 0000 0000 000000
2015-01-24 07:12:45,0.28,1.81,0.00,23.49,28.10,30.83,4.78,27.93,1011.78,2026.95,2721.55,2804.98,3043.45,350.18,345.81,6.36,0000 0000 0000 0000 000000
2015-01-24 07:17:46,0.27,1.82,0.00,23.46,28.10,30.83,4.73,28.02,1011.74,2026.93,2718.86,2802.92,3041.22,349.65,345.30,6.39,0000 0000 0000 0000 000000
2015-01-24 07:22:48,0.28,1.82,0.00,23.44,28.10,30.87,4.79,28.21,1011.73,2026.95,2716.17,2800.90,3039.02,349.91,345.42,6.42,0000 0000 0000 0000 000000
2015-01-24 07:27:49,0.26,1.83,0.00,23.44,28.10,30.85,4.79,27.84,1011.73,2026.96,2713.54,2798.94,3036.80,349.95,345.46,6.45,0000 0000 0000 0000 000000
2015-01-24 07:32:51,0.27,1.84,0.00,23.42,28.10,30.88,4.80,27.98,1011.75,2026.94,2710.87,2796.87,3034.62,350.07,345.43,6.48,0000 0000 0000 0000 000000
2015-01-24 07:37:52,0.26,1.85,0.00,23.42,28.10,30.90,4.72,27.84,1011.75,2026.92,2708.19,2794.84,3032.41,349.28,344.83,6.51,0000 0000 0000 0000 000000
2015-01-24 07:42:53,0.27,1.86,0.00,23.41,28.10,30.94,4.84,28.15,1011.74,2026.88,2705.36,2792.76,3030.15,350.42,345.85,6.54,0000 0000 0000 0000 000000
2015-01-24 07:47:54,0.29,1.86,0.00,23.41,28.10,30.96,4.74,27.89,1011.75,2026.89,2702.70,2790.72,3027.92,349.83,345.39,6.57,0000 0000 0000 0000 000000
2015-01-24 07:52:55,0.27,1.87,0.00,23.40,28.10,30.98,4.74,27.92,1011.77,2026.86,2700.02,2788.63,3025.68,349.94,345.63,6.60,0000 0000 0000 0000 000000
2015-01-24 07:57:57,0.28,1.88,0.00,23.37,28.09,31.00,4.76,27.95,1011.75,2026.93,2697.34,2786.64,3023.54,350.07,345.52,6.63,0000 0000 0000 0000 000000
2015-01-24 08:02:58,0.28,1.89,0.00,23.36,28.09,31.00,4.78,28.08,1011.75,2026.95,2694.66,2784.68,3021.33,349.63,345.24,6.65,0000 0000 0000 0000 000000
2015-01-24 08:07:59,0.29,1.90,0.00,23.37,28.07,31.00,4.76,27.98,1011.73,2026.96,2691.93,2782.60,3019.13,349.72,345.47,6.68,0000 0000 0000 0000 000000
2015-01-24 08:13:01,0.28,1.91,0.00,23.34,28.07,30.97,4.80,28.00,1011.74,2026.97,2689.16,2780.48,3016.89,350.50,346.03,6.71,0000 0000 0000 0000 000000
2015-01-24 08:18:02,0.30,1.92,0.00,23.32,28.07,31.03,4.81,28.16,1011.75,2026.98,2686.40,2778.33,3014.54,349.68,345.40,6.74,0000 0000 0000 0000 000000
2015-01-24 08:23:03,0.28,1.92,0.00,23.30,28.07,31.08,4.78,28.05,1011.73,2026.98,2683.66,2776.30,3012.31,349.86,345.64,6.77,0000 0000 0000 0000 000000
2015-01-24 08:28:04,0.30,1.93,0.00,23.28,28.07,31.08,4.73,28.18,1011.73,2026.98,2680.78,2774.14,3009.98,349.47,345.24,6.80,0000 0000 0000 0000 000000
2015-01-24 08:33:06,0.28,1.94,0.00,23.27,28.07,31.11,4.74,27.99,1011.73,2026.98,2678.02,2772.03,3007.73,350.09,345.67,6.83,0000 0000 0000 0000 000000
2015-01-24 08:38:07,0.28,1.95,0.00,23.27,28.07,31.13,4.78,28.04,1011.74,2026.98,2675.27,2769.94,3005.52,350.26,345.96,6.86,0000 0000 0000 0000 000000
2015-01-24 08:43:08,0.27,1.96,0.00,23.26,28.07,31.13,4.75,28.17,1011.79,2026.98,2672.59,2767.90,3003.29,349.61,345.29,6.89,0000 0000 0000 0000 000000
2015-01-24 08:48:10,0.27,1.96,0.00,23.24,28.06,31.17,4.76,28.02,1011.73,2026.96,2670.06,2765.92,3001.12,350.10,345.87,6.92,0000 0000 0000 0000 000000
2015-01-24 08:53:11,0.28,1.97,0.00,23.20,28.05,31.14,4.81,28.03,1011.76,2026.96,2667.42,2763.89,2998.91,350.67,346.33,6.95,0000 0000 0000 0000 000000
2015-01-24 08:58:13,0.27,1.98,0.00,23.18,28.05,31.16,4.76,27.88,1011.85,2026.98,2664.79,2761.90,2996.74,349.59,345.49,6.98,0000 0000 0000 0000 000000
2015-01-24 09:03:14,0.27,1.99,0.00,23.16,28.05,31.17,4.72,27.98,1011.89,2026.99,2662.23,2759.93,2994.59,349.77,345.59,7.01,0000 0000 0000 0000 000000
2015-01-24 09:08:15,0.27,2.00,0.00,23.13,28.05,31.19,4.75,27.77,1011.74,2026.98,2659.63,2757.97,2992.40,349.94,345.79,7.04,0000 0000 0000 0000 000000
2015-01-24 09:13:16,0.27,2.01,0.00,23.13,28.04,31.19,4.78,27.85,1011.73,2026.99,2657.03,2756.01,2990.29,349.64,345.46,7.06,0000 0000 0000 0000 000000
2015-01-24 09:18:17,0.28,2.01,0.00,23.07,28.03,31.20,4.81,28.10,1011.55,2026.99,2654.38,2754.08,2988.16,349.53,345.41,7.09,0000 0000 0000 0000 000000
2015-01-24 09:23:18,0.27,2.02,0.00,23.06,28.02,31.23,4.82,27.88,1011.72,2026.99,2651.67,2752.07,2985.99,349.94,345.89,7.12,0000 0000 0000 0000 000000
2015-01-24 09:28:19,0.28,2.03,0.00,23.05,28.02,31.17,4.75,27.86,1011.73,2026.99,2649.03,2750.21,2983.76,349.76,345.72,7.15,0000 0000 0000 0000 000000
2015-01-24 09:33:21,0.28,2.04,0.00,23.04,28.01,31.18,4.76,27.93,1011.74,2026.99,2646.32,2748.20,2981.57,349.76,345.79,7.18,0000 0000 0000 0000 000000
2015-01-24 09:38:22,0.28,2.05,0.00,23.04,28.00,31.18,4.83,27.96,1011.74,2026.99,2643.71,2746.25,2979.39,349.63,345.60,7.21,0000 0000 0000 0000 000000
2015-01-24 09:43:23,0.28,2.06,0.00,23.00,28.00,31.16,4.79,28.03,1011.74,2026.99,2641.05,2744.19,2977.20,350.32,346.27,7.24,0000 0000 0000 0000 000000
2015-01-24 09:48:24,0.29,2.06,0.00,22.99,27.98,31.15,4.77,27.95,1011.73,2027.00,2638.44,2742.20,2975.08,349.59,345.89,7.27,0000 0000 0000 0000 000000
2015-01-24 09:53:26,0.27,2.07,0.00,23.01,27.97,31.13,4.86,27.77,1011.73,2027.01,2635.86,2740.22,2972.86,350.16,346.14,7.30,0000 0000 0000 0000 000000
2015-01-24 09:58:27,0.28,2.08,0.00,23.01,27.97,31.14,4.78,27.98,1011.73,2027.00,2633.20,2738.25,2970.62,349.82,345.86,7.33,0000 0000 0000 0000 000000
2015-01-24 10:03:29,0.27,2.09,0.00,22.99,27.96,31.09,4.75,28.00,1011.73,2027.01,2630.60,2736.24,2968.48,349.48,345.51,7.36,0000 0000 0000 0000 000000
2015-01-24 10:08:30,0.29,2.10,0.00,22.96,27.95,31.07,4.75,27.98,1011.73,2027.01,2628.02,2734.30,2966.33,349.50,345.68,7.39,0000 0000 0000 0000 000000
2015-01-24 10:13:31,0.28,2.11,0.00,22.95,27.95,31.06,4.78,27.71,1011.73,2027.03,2625.43,2732.36,2964.21,349.88,345.91,7.42,0000 0000 0000 0000 000000
2015-01-24 10:18:32,0.28,2.11,0.00,22.97,27.94,31.07,4.81,27.81,1011.74,2027.03,2622.91,2730.32,2962.00,350.70,346.74,7.45,0000 0000 0000 0000 000000
2015-01-24 10:23:34,0.30,2.12,0.00,22.98,27.93,31.04,4.81,27.85,1011.74,2027.07,2620.36,2728.32,2959.86,349.99,346.03,7.48,0000 0000 0000 0000 000000
2015-01-24 10:28:35,0.25,2.13,0.00,22.97,27.92,31.02,4.81,27.77,1011.73,2027.06,2617.73,2726.34,2957.69,349.42,345.39,7.50,0000 0000 0000 0000 000000
2015-01-24 10:33:36,0.30,2.14,0.00,22.96,27.92,30.99,4.80,27.93,1011.74,2027.07,2615.14,2724.34,2955.51,350.06,346.35,7.53,0000 0000 0000 0000 000000
2015-01-24 10:38:38,0.29,2.15,0.00,22.98,27.92,30.95,4.80,27.84,1011.75,2027.05,2612.44,2722.29,2953.26,350.41,346.42,7.56,0000 0000 0000 0000 000000
2015-01-24 10:43:39,0.28,2.16,0.00,22.99,27.90,31.00,4.78,27.83,1011.74,2027.05,2609.85,2720.28,2951.08,350.16,346.23,7.59,0000 0000 0000 0000 000000
2015-01-24 10:48:40,0.30,2.16,0.00,23.00,27.90,30.98,4.78,27.75,1011.73,2027.09,2607.25,2718.28,2948.85,350.36,346.38,7.62,0000 0000 0000 0000 000000
2015-01-24 10:53:42,0.28,2.17,0.00,23.00,27.90,30.99,4.76,27.68,1011.76,2027.12,2604.53,2716.22,2946.60,349.99,346.01,7.65,0000 0000 0000 0000 000000
2015-01-24 10:58:43,0.31,2.18,0.00,22.98,27.90,30.94,4.77,27.73,1012.04,2027.19,2601.95,2714.21,2944.49,349.87,346.00,7.68,0000 0000 0000 0000 000000
2015-01-24 11:03:44,0.26,2.19,0.00,23.00,27.90,30.91,4.78,27.66,1012.08,2027.13,2599.35,2712.20,2942.40,349.96,345.96,7.71,0000 0000 0000 0000 000000
2015-01-24 11:08:46,0.30,2.20,0.00,23.02,27.90,30.88,4.77,27.90,1011.92,2027.18,2596.64,2710.13,2940.16,350.27,346.46,7.74,0000 0000 0000 0000 000000
2015-01-24 11:13:47,0.32,2.21,0.00,22.99,27.89,30.88,4.86,27.87,1012.18,2027.26,2593.99,2708.12,2937.96,350.46,346.64,7.77,0000 0000 0000 0000 000000
2015-01-24 11:18:48,0.27,2.22,0.00,23.02,27.89,30.87,4.79,27.80,1012.20,2027.29,2591.36,2706.11,2935.80,349.99,346.18,7.80,0000 0000 0000 0000 000000
2015-01-24 11:23:50,0.27,2.22,0.00,23.03,27.88,30.84,4.80,27.69,1012.17,2027.18,2588.74,2704.09,2933.59,350.04,345.79,7.83,0000 0000 0000 0000 000000
2015-01-24 11:28:51,0.28,2.23,0.00,23.02,27.88,30.87,4.81,27.86,1012.20,2027.14,2586.14,2702.10,2931.37,350.43,346.51,7.86,0000 0000 0000 0000 000000
2015-01-24 11:33:53,0.28,2.24,0.00,23.04,27.88,30.81,4.78,27.87,1012.21,2027.14,2583.58,2700.15,2929.27,349.79,345.93,7.89,0000 0000 0000 0000 000000
2015-01-24 11:38:54,0.28,2.25,0.00,23.05,27.87,30.80,4.76,27.93,1012.21,2027.12,2580.93,2698.16,2927.17,349.86,346.01,7.91,0000 0000 0000 0000 000000
2015-01-24 11:43:55,0.29,2.26,0.00,23.05,27.87,30.80,4.76,27.70,1012.15,2027.09,2578.26,2696.10,2924.89,350.06,346.22,7.94,0000 0000 0000 0000 000000
2015-01-24 11:48:56,0.32,2.27,0.00,23.06,27.87,30.79,4.81,27.93,1012.16,2027.13,2575.43,2694.01,2922.58,350.09,346.10,7.97,0000 0000 0000 0000 000000
2015-01-24 11:53:57,0.30,2.28,0.00,23.05,27.88,30.78,4.76,27.82,1012.11,2027.19,2572.69,2691.93,2920.40,350.10,346.19,8.00,0000 0000 0000 0000 000000
2015-01-24 11:58:59,0.28,2.28,0.00,23.10,27.88,30.76,4.84,27.93,1012.18,2027.16,2570.16,2689.99,2918.28,350.53,346.57,8.03,0000 0000 0000 0000 000000
2015-01-24 12:04:00,0.26,2.29,0.00,23.09,27.89,30.77,4.82,27.91,1012.22,2027.13,2567.64,2688.08,2916.16,350.09,346.14,8.06,0000 0000 0000 0000 000000
2015-01-24 12:09:01,0.28,2.30,0.00,23.12,27.89,30.76,4.71,27.87,1012.18,2027.11,2565.13,2686.27,2914.04,349.33,345.53,8.09,0000 0000 0000 0000 000000
2015-01-24 12:14:02,0.27,2.31,0.00,23.10,27.90,30.73,4.71,27.65,1012.22,2027.10,2562.74,2684.38,2911.98,349.70,345.77,8.12,0000 0000 0000 0000 000000
2015-01-24 12:19:04,0.28,2.32,0.00,23.12,27.90,30.72,4.80,27.66,1012.22,2027.09,2560.28,2682.48,2909.85,349.66,345.71,8.15,0000 0000 0000 0000 000000
2015-01-24 12:24:05,0.28,2.32,0.00,23.12,27.90,30.75,4.77,27.57,1012.23,2027.10,2557.90,2680.52,2907.71,349.85,345.55,8.18,0000 0000 0000 0000 000000
2015-01-24 12:29:06,0.29,2.34,0.00,23.15,27.90,30.77,4.85,27.73,1012.22,2027.08,2555.25,2678.51,2905.50,349.99,346.18,8.21,0000 0000 0000 0000 000000
2015-01-24 12:34:08,0.28,2.34,0.00,23.12,27.90,30.73,4.72,27.79,1012.22,2027.03,2552.60,2676.43,2903.23,349.55,345.61,8.24,0000 0000 0000 0000 000000
2015-01-24 12:39:09,0.28,2.35,0.00,23.14,27.91,30.76,4.81,27.63,1012.22,2027.01,2550.19,2674.52,2901.11,350.11,345.91,8.27,0000 0000 0000 0000 000000
2015-01-24 12:44:10,0.28,2.36,0.00,23.16,27.92,30.77,4.76,27.54,1012.18,2027.00,2547.68,2672.58,2898.95,350.36,346.32,8.29,0000 0000 0000 0000 000000
2015-01-24 12:49:12,0.27,2.37,0.00,23.15,27.92,30.76,4.83,27.63,1012.22,2027.01,2545.25,2670.76,2897.04,350.19,346.20,8.32,0000 0000 0000 0000 000000
2015-01-24 12:54:13,0.29,2.38,0.00,23.17,27.92,30.80,4.78,27.73,1012.16,2027.00,2542.65,2668.75,2894.91,349.77,345.77,8.35,0000 0000 0000 0000 000000
2015-01-24 12:59:14,0.28,2.39,0.00,23.15,27.92,30.78,4.73,27.65,1012.21,2027.01,2540.09,2666.77,2892.71,349.51,345.49,8.38,0000 0000 0000 0000 000000
2015-01-24 13:04:15,0.29,2.39,0.00,23.18,27.93,30.80,4.82,27.54,1012.19,2027.02,2537.56,2664.88,2890.65,350.19,346.40,8.41,0000 0000 0000 0000 000000